Hauptseite
METAR-TAF:

METAR-TAF

Flughäfen :

Awg-1, Niederlande

Bohrplattform

Breite: 53-29-30N, Länge: 5-56-30E, Höhe: 33 m

Beobachtung

Neuester Wetterbericht von vor 34 Minuten, um 11:25 UTC
Wind 6 kt aus West/Nordwest
Temperatur 17°C
Luftfeuchtigkeit 68%
Luftdruck 1023 hPa
Sichtweite 10 km oder mehr

METAR: EHMA 211125Z AUTO 29006KT 9999 NCD 17/11 Q1023

Zeit: 13:59 (11:59 UTC)


TAF: fehlend

Wetterbeobachtungen und Prognosen von mehr als 4000 Flughäfen (METAR und TAF Bericht).

Die verfügbaren Stationen werden durch gelbe und rote Markierungen auf der Karte dargestellt.

Führen Sie die Maus auf sie, um den Namen der Station zu sehen.

Darauf klicken, um die Beobachtung von Wetterbeobachtungen und Prognosen zu sehen.

Um die Karte zu ändern : klicken Sie auf den grünen Tasten mit einem schwarzen Kreuz Zum Vergrößern, auf den grünen Button mit einem Gedankenstrich zu verkleinern, oder auf die grünen Pfeile für benachbarte Karten.


METAR-TAF: